Zurück zum Katalog

STARLINK-5987

AktivKommunikationVLEO
NORAD 56455·PAYLOAD·🇺🇸 United States

Gestartet May 10, 2023 von Vandenberg Space Force Base

Loading…

Nächste Überflüge (nächste 24 Stunden)

TLE

AktuellSource: CelesTrak SupGP

Epoche: Sep 14, 2026, 21:40 UTC

1 56455C 23064H   26257.90326389 -.00018048  00000+0 -15127-2 0  2579
2 56455  70.0030  27.3490 0002981 273.2467 286.9121 14.98336065    18

Verfolge STARLINK-5987 in Echtzeit mit AllMySat

Download on the App Store